Track COSMOS 2507 now! 10-day predictions COSMOS 2507 is classified as:
1 40920U 15050A 26022.93937197 -.00000125 00000-0 -97038-3 0 9996 2 40920 82.4938 170.0857 0008889 306.6865 53.3397 12.42920914468817